This is the latest recevied weather packets stored in our database for station/object DM4XI-13. If no packets are shown the sender has not sent any weather packets the latest 10 day(s).
| Time | Temp. | Humidity | Pressure | Rain* | Wind** | Luminosity | Snow |
|---|---|---|---|---|---|---|---|
| 1777461184 | 15.56° C | 28% | 1021.1 hPa | 0 mm | 0.89 m/s, 198° | 624 W/m² | - |
| 1777461123 | 15.56° C | 27% | 1020.9 hPa | 0 mm | 1.79 m/s, 226° | 624 W/m² | - |
| 1777461062 | 15° C | 28% | 1021 hPa | 0 mm | 1.34 m/s, 118° | 624 W/m² | - |
| 1777461000 | 15° C | 28% | 1021 hPa | 0 mm | 1.79 m/s, 200° | 625 W/m² | - |
| 1777460939 | 15° C | 29% | 1020.9 hPa | 0 mm | 0.45 m/s, 139° | 626 W/m² | - |
| 1777460879 | 15° C | 28% | 1020.8 hPa | 0 mm | 0.89 m/s, 1° | 624 W/m² | - |
| 1777460818 | 15° C | 26% | 1021 hPa | 0 mm | 2.68 m/s, 31° | 625 W/m² | - |
| 1777460757 | 15.56° C | 27% | 1020.9 hPa | 0 mm | 0.89 m/s, 126° | 624 W/m² | - |
| 1777460695 | 15.56° C | 26% | 1021.1 hPa | 0 mm | 3.13 m/s, 19° | 625 W/m² | - |
| 1777460635 | 15.56° C | 27% | 1021.1 hPa | 0 mm | 2.68 m/s, 8° | 624 W/m² | - |
| 1777460574 | 15.56° C | 27% | 1020.8 hPa | 0 mm | 1.34 m/s, 321° | 624 W/m² | - |
| 1777460513 | 15.56° C | 27% | 1020.9 hPa | 0 mm | 0.45 m/s, 218° | 624 W/m² | - |
| 1777460452 | 15.56° C | 27% | 1020.8 hPa | 0 mm | 1.79 m/s, 233° | 624 W/m² | - |
| 1777460391 | 15.56° C | 26% | 1020.9 hPa | 0 mm | 1.79 m/s, 285° | 624 W/m² | - |
| 1777460330 | 15.56° C | 28% | 1021.1 hPa | 0 mm | 0.45 m/s, 264° | 624 W/m² | - |
| 1777460269 | 15.56° C | 28% | 1020.9 hPa | 0 mm | 0.89 m/s, 20° | 623 W/m² | - |
| 1777460208 | 15.56° C | 27% | 1020.9 hPa | 0 mm | 1.79 m/s, 295° | 624 W/m² | - |
| 1777460147 | 15.56° C | 27% | 1020.9 hPa | 0 mm | 0.45 m/s, 153° | 623 W/m² | - |
| 1777460086 | 15.56° C | 27% | 1021.1 hPa | 0 mm | 1.34 m/s, 26° | 623 W/m² | - |
| 1777460025 | 15.56° C | 29% | 1021.2 hPa | 0 mm | 1.34 m/s, 78° | 623 W/m² | - |
| 1777459964 | 15.56° C | 28% | 1021.1 hPa | 0 mm | 2.24 m/s, 13° | 621 W/m² | - |
| 1777459903 | 15.56° C | 29% | 1021 hPa | 0 mm | 0.89 m/s, 125° | 621 W/m² | - |
| 1777459842 | 15.56° C | 27% | 1021 hPa | 0 mm | 0.89 m/s, 67° | 621 W/m² | - |
| 1777459781 | 15.56° C | 29% | 1021.1 hPa | 0 mm | 1.79 m/s, 51° | 621 W/m² | - |
| 1777459720 | 15.56° C | 28% | 1021 hPa | 0 mm | 0.89 m/s, 352° | 621 W/m² | - |
* Rain latest hour (hover to see other rain measurements)
** Current wind speed in m/s (hover to see current wind gust speed)